| time (UTC) | temp C | wind direction | speed KPH | gust KPH | rain 1hr cm | rain 24hr cm | rain mn cm | humidity % | barometer mb |
| 20260831234123 | 21 | 278 | 0.0 | 0.0 | 0.00 | 0.00 | 0.00 | 88 | 1019.6 |
| 20260831233618 | 21 | 278 | 0.0 | 0.0 | 0.00 | 0.00 | 0.00 | 88 | 1019.5 |
| 20260831233113 | 21 | 278 | 0.0 | 0.0 | 0.00 | 0.00 | 0.00 | 87 | 1019.6 |
| 20260831232608 | 21 | 278 | 0.0 | 0.0 | 0.00 | 0.00 | 0.00 | 87 | 1019.6 |
| 20260831232104 | 21 | 278 | 0.0 | 0.0 | 0.00 | 0.00 | 0.00 | 87 | 1019.6 |
| 20260831231600 | 22 | 278 | 1.6 | 1.6 | 0.00 | 0.00 | 0.00 | 86 | 1019.8 |
| 20260831231055 | 22 | 278 | 0.0 | 0.0 | 0.00 | 0.00 | 0.00 | 84 | 1019.7 |
| 20260831230551 | 22 | 278 | 0.0 | 0.0 | 0.00 | 0.00 | 0.00 | 84 | 1019.7 |
| 20260831230046 | 22 | 278 | 0.0 | 0.0 | 0.00 | 0.00 | 0.00 | 80 | 1019.7 |
| 20260831225541 | 22 | 278 | 0.0 | 0.0 | 0.00 | 0.00 | 0.00 | 82 | 1019.8 |
| 20260831225035 | 22 | 278 | 0.0 | 0.0 | 0.00 | 0.00 | 0.00 | 81 | 1019.8 |
| 20260831224530 | 23 | 278 | 0.0 | 1.6 | 0.00 | 0.00 | 0.00 | 82 | 1019.8 |
| 20260831224026 | 23 | 278 | 1.6 | 1.6 | 0.00 | 0.00 | 0.00 | 82 | 1019.8 |
| 20260831223521 | 23 | 278 | 0.0 | 1.6 | 0.00 | 0.00 | 0.00 | 81 | 1020.0 |
| 20260831223017 | 23 | 278 | 0.0 | 1.6 | 0.00 | 0.00 | 0.00 | 79 | 1020.0 |
| 20260831222513 | 23 | 278 | 0.0 | 1.6 | 0.00 | 0.00 | 0.00 | 79 | 1020.1 |
| 20260831222012 | 23 | 278 | 3.2 | 4.8 | 0.00 | 0.00 | 0.00 | 79 | 1019.9 |
| 20260831221509 | 23 | 278 | 3.2 | 4.8 | 0.00 | 0.00 | 0.00 | 79 | 1019.9 |
| 20260831221003 | 23 | 273 | 1.6 | 4.8 | 0.00 | 0.00 | 0.00 | 80 | 1020.0 |
| 20260831220459 | 23 | 264 | 0.0 | 1.6 | 0.00 | 0.00 | 0.00 | 81 | 1019.9 |
| 20260831215954 | 23 | 216 | 1.6 | 4.8 | 0.00 | 0.00 | 0.00 | 79 | 1020.1 |
| 20260831215449 | 23 | 200 | 0.0 | 1.6 | 0.00 | 0.00 | 0.00 | 79 | 1020.1 |
| 20260831214945 | 23 | 296 | 1.6 | 4.8 | 0.00 | 0.00 | 0.00 | 79 | 1020.2 |
| 20260831214443 | 23 | 293 | 0.0 | 4.8 | 0.00 | 0.00 | 0.00 | 81 | 1020.1 |
| 20260831213938 | 23 | 293 | 0.0 | 4.8 | 0.00 | 0.00 | 0.00 | 85 | 1020.2 |
| 20260831213435 | 22 | 292 | 3.2 | 4.8 | 0.00 | 0.00 | 0.00 | 87 | 1020.4 |
| 20260831212935 | 22 | 292 | 4.8 | 6.4 | 0.00 | 0.00 | 0.00 | 89 | 1020.2 |
| 20260831212431 | 22 | 292 | 6.4 | 6.4 | 0.00 | 0.00 | 0.00 | 88 | 1020.2 |
| 20260831211931 | 22 | 286 | 3.2 | 4.8 | 0.00 | 0.00 | 0.00 | 87 | 1020.3 |
| 20260831211426 | 22 | 283 | 3.2 | 4.8 | 0.00 | 0.00 | 0.00 | 87 | 1020.4 |
| 20260831210925 | 22 | 266 | 1.6 | 4.8 | 0.00 | 0.00 | 0.00 | 86 | 1020.5 |
| 20260831210421 | 22 | 266 | 3.2 | 4.8 | 0.00 | 0.00 | 0.00 | 84 | 1020.5 |
| 20260831205916 | 22 | 271 | 1.6 | 1.6 | 0.00 | 0.00 | 0.00 | 83 | 1020.5 |
| 20260831205407 | 23 | 271 | 1.6 | 4.8 | 0.00 | 0.00 | 0.00 | 83 | 1020.5 |
| 20260831204906 | 23 | 279 | 4.8 | 4.8 | 0.00 | 0.00 | 0.00 | 82 | 1020.7 |
| 20260831204405 | 23 | 278 | 1.6 | 4.8 | 0.00 | 0.00 | 0.00 | 85 | 1020.7 |
| 20260831203900 | 23 | 259 | 0.0 | 1.6 | 0.00 | 0.00 | 0.00 | 84 | 1020.6 |
| 20260831203355 | 23 | 278 | 3.2 | 4.8 | 0.00 | 0.00 | 0.00 | 84 | 1020.3 |
| 20260831202853 | 23 | 278 | 1.6 | 1.6 | 0.00 | 0.00 | 0.00 | 86 | 1020.3 |
| 20260831202348 | 23 | 278 | 3.2 | 4.8 | 0.00 | 0.00 | 0.00 | 86 | 1020.3 |
| 20260831201847 | 22 | 278 | 1.6 | 1.6 | 0.00 | 0.00 | 0.00 | 86 | 1020.5 |
| 20260831201346 | 23 | 278 | 0.0 | 1.6 | 0.00 | 0.00 | 0.00 | 89 | 1020.4 |
| 20260831200842 | 22 | 278 | 0.0 | 0.0 | 0.00 | 0.00 | 0.00 | 87 | 1020.5 |
| 20260831200337 | 22 | 278 | 0.0 | 1.6 | 0.00 | 0.00 | 0.00 | 86 | 1020.8 |
| 20260831195832 | 23 | 278 | 1.6 | 1.6 | 0.00 | 0.00 | 0.00 | 83 | 1020.6 |
| 20260831195328 | 23 | 278 | 0.0 | 0.0 | 0.00 | 0.00 | 0.00 | 84 | 1020.9 |
| 20260831194823 | 23 | 278 | 0.0 | 1.6 | 0.00 | 0.00 | 0.00 | 84 | 1020.8 |
| 20260831194318 | 23 | 278 | 0.0 | 1.6 | 0.00 | 0.00 | 0.00 | 83 | 1021.1 |
| 20260831193817 | 23 | 278 | 0.0 | 0.0 | 0.00 | 0.00 | 0.00 | 83 | 1021.3 |
| 20260831193313 | 23 | 278 | 0.0 | 1.6 | 0.00 | 0.00 | 0.00 | 82 | 1021.1 |
| 20260831192808 | 23 | 278 | 3.2 | 4.8 | 0.00 | 0.00 | 0.00 | 81 | 1021.2 |
| 20260831192305 | 23 | 278 | 1.6 | 4.8 | 0.00 | 0.00 | 0.00 | 83 | 1021.1 |
| 20260831191759 | 24 | 277 | 0.0 | 1.6 | 0.00 | 0.00 | 0.00 | 81 | 1021.1 |
| 20260831191255 | 23 | 278 | 0.0 | 0.0 | 0.00 | 0.00 | 0.00 | 82 | 1021.1 |
| 20260831190750 | 23 | 278 | 0.0 | 0.0 | 0.00 | 0.00 | 0.00 | 83 | 1021.2 |
| 20260831190250 | 23 | 278 | 0.0 | 0.0 | 0.00 | 0.00 | 0.00 | 82 | 1021.3 |
| 20260831185745 | 23 | 278 | 0.0 | 1.6 | 0.00 | 0.00 | 0.00 | 83 | 1021.3 |
| 20260831185241 | 23 | 278 | 0.0 | 1.6 | 0.00 | 0.00 | 0.00 | 80 | 1021.3 |
| 20260831184739 | 23 | 278 | 1.6 | 1.6 | 0.00 | 0.00 | 0.00 | 81 | 1021.5 |
| 20260831184236 | 23 | 278 | 0.0 | 0.0 | 0.00 | 0.00 | 0.00 | 81 | 1021.3 |
| 20260831183735 | 23 | 278 | 0.0 | 0.0 | 0.00 | 0.00 | 0.00 | 80 | 1021.5 |
| 20260831183230 | 23 | 278 | 1.6 | 1.6 | 0.00 | 0.00 | 0.00 | 79 | 1021.6 |
| 20260831182729 | 24 | 277 | 0.0 | 0.0 | 0.00 | 0.00 | 0.00 | 79 | 1021.5 |
| 20260831182225 | 24 | 277 | 1.6 | 1.6 | 0.00 | 0.00 | 0.00 | 78 | 1021.6 |
| 20260831181725 | 24 | 277 | 0.0 | 1.6 | 0.00 | 0.00 | 0.00 | 77 | 1021.4 |
| 20260831181220 | 23 | 276 | 0.0 | 1.6 | 0.00 | 0.00 | 0.00 | 77 | 1021.7 |
| 20260831180715 | 23 | 277 | 0.0 | 1.6 | 0.00 | 0.00 | 0.00 | 79 | 1021.6 |
| 20260831180209 | 23 | 276 | 0.0 | 1.6 | 0.00 | 0.00 | 0.00 | 78 | 1021.4 |
| 20260831175708 | 23 | 276 | 0.0 | 1.6 | 0.00 | 0.00 | 0.00 | 79 | 1021.5 |
| 20260831175205 | 23 | 276 | 0.0 | 0.0 | 0.00 | 0.00 | 0.00 | 78 | 1021.8 |
| 20260831174700 | 23 | 276 | 0.0 | 1.6 | 0.00 | 0.00 | 0.00 | 78 | 1021.8 |
| 20260831174155 | 23 | 276 | 0.0 | 1.6 | 0.00 | 0.00 | 0.00 | 79 | 1021.6 |
| 20260831173654 | 23 | 276 | 1.6 | 1.6 | 0.00 | 0.00 | 0.00 | 79 | 1021.8 |
| 20260831173150 | 23 | 276 | 3.2 | 4.8 | 0.00 | 0.00 | 0.00 | 79 | 1021.8 |
| 20260831172649 | 23 | 275 | 0.0 | 1.6 | 0.00 | 0.00 | 0.00 | 79 | 1021.8 |
| 20260831172144 | 23 | 215 | 1.6 | 1.6 | 0.00 | 0.00 | 0.00 | 77 | 1021.7 |
| 20260831171639 | 24 | 214 | 0.0 | 0.0 | 0.00 | 0.00 | 0.00 | 75 | 1021.6 |
| 20260831171137 | 24 | 214 | 1.6 | 1.6 | 0.00 | 0.00 | 0.00 | 77 | 1021.7 |
| 20260831170633 | 25 | 280 | 3.2 | 4.8 | 0.00 | 0.00 | 0.00 | 75 | 1021.9 |
| 20260831170130 | 25 | 249 | 1.6 | 1.6 | 0.00 | 0.00 | 0.00 | 75 | 1021.8 |
| 20260831165625 | 24 | 276 | 0.0 | 1.6 | 0.00 | 0.00 | 0.00 | 79 | 1021.7 |
| 20260831165122 | 25 | 253 | 1.6 | 1.6 | 0.00 | 0.00 | 0.00 | 76 | 1021.7 |
| 20260831164617 | 25 | 139 | 0.0 | 0.0 | 0.00 | 0.00 | 0.00 | 75 | 1021.9 |
| 20260831164113 | 25 | 140 | 0.0 | 0.0 | 0.00 | 0.00 | 0.00 | 75 | 1022.0 |
| 20260831163608 | 24 | 139 | 0.0 | 4.8 | 0.00 | 0.00 | 0.00 | 75 | 1021.9 |
| 20260831163103 | 25 | 105 | 4.8 | 8.0 | 0.00 | 0.00 | 0.00 | 73 | 1021.7 |
| 20260831162603 | 24 | 85 | 0.0 | 1.6 | 0.00 | 0.00 | 0.00 | 73 | 1021.7 |
| 20260831162100 | 24 | 192 | 3.2 | 6.4 | 0.00 | 0.00 | 0.00 | 75 | 1021.8 |
| 20260831161556 | 24 | 84 | 3.2 | 6.4 | 0.00 | 0.00 | 0.00 | 74 | 1021.7 |
| 20260831161053 | 23 | 206 | 0.0 | 1.6 | 0.00 | 0.00 | 0.00 | 76 | 1021.7 |
| 20260831160551 | 23 | 177 | 3.2 | 4.8 | 0.00 | 0.00 | 0.00 | 78 | 1021.7 |
| 20260831160047 | 22 | 163 | 1.6 | 6.4 | 0.00 | 0.00 | 0.00 | 78 | 1021.8 |
| 20260831155542 | 23 | 149 | 1.6 | 4.8 | 0.00 | 0.00 | 0.00 | 77 | 1022.1 |
| 20260831155037 | 23 | 94 | 0.0 | 1.6 | 0.00 | 0.00 | 0.00 | 78 | 1021.9 |
| 20260831154533 | 23 | 124 | 1.6 | 1.6 | 0.00 | 0.00 | 0.00 | 77 | 1022.1 |
| 20260831154032 | 23 | 101 | 6.4 | 6.4 | 0.00 | 0.00 | 0.00 | 78 | 1022.0 |
| 20260831153526 | 22 | 124 | 0.0 | 6.4 | 0.00 | 0.00 | 0.00 | 79 | 1022.0 |
| 20260831153023 | 22 | 86 | 3.2 | 4.8 | 0.00 | 0.00 | 0.00 | 79 | 1022.2 |
| 20260831152518 | 22 | 123 | 0.0 | 4.8 | 0.00 | 0.00 | 0.00 | 80 | 1022.0 |
| 20260831152014 | 22 | 108 | 3.2 | 6.4 | 0.00 | 0.00 | 0.00 | 80 | 1022.2 |
| 20260831151508 | 22 | 139 | 3.2 | 6.4 | 0.00 | 0.00 | 0.00 | 81 | 1022.3 |
| 20260831151002 | 22 | 116 | 4.8 | 6.4 | 0.00 | 0.00 | 0.00 | 81 | 1022.1 |
| 20260831150458 | 22 | 147 | 3.2 | 4.8 | 0.00 | 0.00 | 0.00 | 80 | 1022.3 |
| 20260831145957 | 22 | 138 | 1.6 | 1.6 | 0.00 | 0.00 | 0.00 | 80 | 1022.2 |
| 20260831145453 | 22 | 138 | 0.0 | 1.6 | 0.00 | 0.00 | 0.00 | 80 | 1022.1 |
| 20260831144949 | 22 | 138 | 0.0 | 1.6 | 0.00 | 0.00 | 0.00 | 79 | 1022.2 |
| 20260831144443 | 22 | 138 | 1.6 | 1.6 | 0.00 | 0.00 | 0.00 | 79 | 1022.3 |
| 20260831143939 | 22 | 138 | 0.0 | 0.0 | 0.00 | 0.00 | 0.00 | 78 | 1022.3 |
| 20260831143434 | 22 | 138 | 0.0 | 0.0 | 0.00 | 0.00 | 0.00 | 82 | 1022.2 |
| 20260831142929 | 21 | 138 | 0.0 | 4.8 | 0.00 | 0.00 | 0.00 | 82 | 1022.2 |
| 20260831142426 | 22 | 117 | 3.2 | 4.8 | 0.00 | 0.00 | 0.00 | 79 | 1022.2 |
| 20260831141926 | 22 | 109 | 0.0 | 1.6 | 0.00 | 0.00 | 0.00 | 81 | 1022.2 |
| 20260831141419 | 22 | 148 | 1.6 | 1.6 | 0.00 | 0.00 | 0.00 | 81 | 1022.1 |
| 20260831140915 | 22 | 114 | 1.6 | 1.6 | 0.00 | 0.00 | 0.00 | 80 | 1022.4 |
| 20260831140409 | 22 | 114 | 0.0 | 1.6 | 0.00 | 0.00 | 0.00 | 81 | 1022.2 |
| 20260831135908 | 21 | 114 | 0.0 | 0.0 | 0.00 | 0.00 | 0.00 | 83 | 1022.3 |
| 20260831135403 | 21 | 114 | 0.0 | 0.0 | 0.00 | 0.00 | 0.00 | 84 | 1022.0 |
| 20260831134858 | 21 | 114 | 0.0 | 4.8 | 0.00 | 0.00 | 0.00 | 83 | 1022.0 |
| 20260831134354 | 21 | 124 | 1.6 | 4.8 | 0.00 | 0.00 | 0.00 | 84 | 1022.0 |
| 20260831133853 | 21 | 122 | 0.0 | 1.6 | 0.00 | 0.00 | 0.00 | 84 | 1022.2 |
| 20260831133348 | 21 | 121 | 1.6 | 4.8 | 0.00 | 0.00 | 0.00 | 84 | 1022.0 |
| 20260831132844 | 21 | 110 | 3.2 | 6.4 | 0.00 | 0.00 | 0.00 | 84 | 1022.2 |
| 20260831132338 | 21 | 123 | 0.0 | 4.8 | 0.00 | 0.00 | 0.00 | 85 | 1022.0 |
| 20260831131838 | 21 | 123 | 1.6 | 6.4 | 0.00 | 0.00 | 0.00 | 86 | 1022.1 |
| 20260831131334 | 21 | 103 | 4.8 | 8.0 | 0.00 | 0.00 | 0.00 | 85 | 1021.9 |
| 20260831130829 | 21 | 130 | 3.2 | 6.4 | 0.00 | 0.00 | 0.00 | 86 | 1021.9 |
| 20260831130325 | 21 | 92 | 4.8 | 11.3 | 0.00 | 0.00 | 0.00 | 86 | 1022.1 |
| 20260831125824 | 21 | 112 | 1.6 | 1.6 | 0.00 | 0.00 | 0.00 | 88 | 1022.0 |
| 20260831125319 | 20 | 128 | 0.0 | 1.6 | 0.00 | 0.00 | 0.00 | 88 | 1022.0 |
| 20260831124819 | 20 | 129 | 0.0 | 1.6 | 0.00 | 0.00 | 0.00 | 88 | 1022.0 |
| 20260831124315 | 20 | 132 | 3.2 | 4.8 | 0.00 | 0.00 | 0.00 | 89 | 1022.0 |
| 20260831123815 | 20 | 145 | 4.8 | 6.4 | 0.00 | 0.00 | 0.00 | 89 | 1021.9 |
| 20260831123313 | 20 | 114 | 3.2 | 8.0 | 0.00 | 0.00 | 0.00 | 89 | 1022.0 |
| 20260831122809 | 20 | 77 | 6.4 | 6.4 | 0.00 | 0.00 | 0.00 | 89 | 1022.1 |
| 20260831122306 | 20 | 124 | 3.2 | 6.4 | 0.00 | 0.00 | 0.00 | 88 | 1022.1 |
| 20260831121759 | 20 | 137 | 3.2 | 4.8 | 0.00 | 0.00 | 0.00 | 88 | 1022.0 |
| 20260831121255 | 20 | 138 | 0.0 | 1.6 | 0.00 | 0.00 | 0.00 | 89 | 1021.9 |
| 20260831120750 | 20 | 138 | 0.0 | 1.6 | 0.00 | 0.00 | 0.00 | 91 | 1022.0 |
| 20260831120245 | 20 | 138 | 0.0 | 4.8 | 0.00 | 0.00 | 0.00 | 91 | 1022.1 |
| 20260831115740 | 20 | 138 | 1.6 | 1.6 | 0.00 | 0.00 | 0.00 | 91 | 1022.1 |
| 20260831115237 | 20 | 138 | 1.6 | 1.6 | 0.00 | 0.00 | 0.00 | 91 | 1022.0 |
| 20260831114735 | 20 | 138 | 1.6 | 1.6 | 0.00 | 0.00 | 0.00 | 91 | 1021.9 |
| 20260831114235 | 19 | 138 | 0.0 | 1.6 | 0.00 | 0.00 | 0.00 | 92 | 1022.0 |
| 20260831113730 | 19 | 138 | 1.6 | 1.6 | 0.00 | 0.00 | 0.00 | 93 | 1021.7 |
| 20260831113225 | 19 | 138 | 0.0 | 1.6 | 0.00 | 0.00 | 0.00 | 93 | 1021.7 |
| 20260831112724 | 19 | 138 | 1.6 | 1.6 | 0.00 | 0.00 | 0.00 | 92 | 1021.6 |
| 20260831112220 | 19 | 138 | 1.6 | 1.6 | 0.00 | 0.00 | 0.00 | 92 | 1021.5 |
| 20260831111715 | 19 | 138 | 0.0 | 1.6 | 0.00 | 0.00 | 0.00 | 92 | 1021.5 |
| 20260831111211 | 19 | 138 | 1.6 | 1.6 | 0.00 | 0.00 | 0.00 | 92 | 1021.6 |
| 20260831110707 | 19 | 138 | 0.0 | 0.0 | 0.00 | 0.00 | 0.00 | 92 | 1021.5 |
| 20260831110202 | 19 | 138 | 0.0 | 0.0 | 0.00 | 0.00 | 0.00 | 92 | 1021.4 |
| 20260831105700 | 19 | 138 | 0.0 | 0.0 | 0.00 | 0.00 | 0.00 | 92 | 1021.5 |
| 20260831105156 | 19 | 138 | 0.0 | 1.6 | 0.00 | 0.00 | 0.00 | 92 | 1021.2 |
| 20260831104651 | 19 | 138 | 0.0 | 0.0 | 0.00 | 0.00 | 0.00 | 93 | 1021.3 |
| 20260831104147 | 19 | 138 | 0.0 | 0.0 | 0.00 | 0.00 | 0.00 | 93 | 1021.4 |
| 20260831103642 | 19 | 138 | 0.0 | 0.0 | 0.00 | 0.00 | 0.00 | 93 | 1021.1 |
| 20260831103132 | 19 | 138 | 0.0 | 0.0 | 0.00 | 0.00 | 0.00 | 93 | 1020.9 |
| 20260831102627 | 19 | 138 | 0.0 | 1.6 | 0.00 | 0.00 | 0.00 | 92 | 1021.1 |
| 20260831102121 | 19 | 138 | 0.0 | 4.8 | 0.00 | 0.00 | 0.00 | 92 | 1021.1 |
| 20260831101621 | 19 | 144 | 1.6 | 1.6 | 0.00 | 0.00 | 0.00 | 92 | 1021.1 |
| 20260831101118 | 19 | 142 | 1.6 | 4.8 | 0.00 | 0.00 | 0.00 | 92 | 1021.1 |
| 20260831100613 | 19 | 162 | 1.6 | 4.8 | 0.00 | 0.00 | 0.00 | 93 | 1021.2 |
| 20260831100109 | 19 | 162 | 0.0 | 0.0 | 0.00 | 0.00 | 0.00 | 93 | 1021.0 |
| 20260831095607 | 19 | 162 | 1.6 | 1.6 | 0.00 | 0.00 | 0.00 | 93 | 1021.0 |
| 20260831095102 | 20 | 162 | 1.6 | 1.6 | 0.00 | 0.00 | 0.00 | 92 | 1021.2 |
| 20260831094558 | 20 | 162 | 0.0 | 1.6 | 0.00 | 0.00 | 0.00 | 91 | 1021.2 |
| 20260831094054 | 19 | 162 | 0.0 | 1.6 | 0.00 | 0.00 | 0.00 | 91 | 1021.1 |
| 20260831093549 | 19 | 162 | 0.0 | 0.0 | 0.00 | 0.00 | 0.00 | 92 | 1021.1 |
| 20260831093045 | 19 | 162 | 0.0 | 0.0 | 0.00 | 0.00 | 0.00 | 92 | 1021.0 |
| 20260831092541 | 19 | 162 | 0.0 | 0.0 | 0.00 | 0.00 | 0.00 | 92 | 1021.0 |
| 20260831092037 | 20 | 162 | 0.0 | 0.0 | 0.00 | 0.00 | 0.00 | 92 | 1020.7 |
| 20260831091536 | 20 | 162 | 0.0 | 0.0 | 0.00 | 0.00 | 0.00 | 92 | 1020.9 |
| 20260831091032 | 20 | 162 | 1.6 | 1.6 | 0.00 | 0.00 | 0.00 | 92 | 1020.8 |
| 20260831090527 | 20 | 162 | 0.0 | 0.0 | 0.00 | 0.00 | 0.00 | 92 | 1020.5 |
| 20260831090023 | 20 | 162 | 1.6 | 1.6 | 0.00 | 0.00 | 0.00 | 92 | 1020.4 |
| 20260831085518 | 20 | 162 | 3.2 | 4.8 | 0.00 | 0.00 | 0.00 | 92 | 1020.3 |
| 20260831085018 | 20 | 162 | 0.0 | 4.8 | 0.00 | 0.00 | 0.00 | 93 | 1020.5 |
| 20260831084514 | 20 | 163 | 1.6 | 1.6 | 0.00 | 0.00 | 0.00 | 93 | 1020.6 |
| 20260831084011 | 20 | 163 | 0.0 | 0.0 | 0.00 | 0.00 | 0.00 | 93 | 1020.8 |
| 20260831083506 | 20 | 163 | 1.6 | 1.6 | 0.00 | 0.00 | 0.00 | 93 | 1020.6 |
| 20260831083006 | 20 | 164 | 0.0 | 0.0 | 0.00 | 0.00 | 0.00 | 93 | 1020.7 |
| 20260831082500 | 20 | 164 | 0.0 | 0.0 | 0.00 | 0.00 | 0.00 | 93 | 1020.9 |
| 20260831081955 | 20 | 164 | 0.0 | 1.6 | 0.00 | 0.00 | 0.00 | 93 | 1020.7 |
| 20260831081450 | 20 | 163 | 0.0 | 0.0 | 0.00 | 0.00 | 0.00 | 92 | 1020.8 |
| 20260831080946 | 20 | 163 | 0.0 | 1.6 | 0.00 | 0.00 | 0.00 | 92 | 1021.0 |
| 20260831080441 | 20 | 163 | 0.0 | 0.0 | 0.00 | 0.00 | 0.00 | 91 | 1020.8 |
| 20260831075936 | 20 | 163 | 0.0 | 1.6 | 0.00 | 0.00 | 0.00 | 90 | 1020.8 |
| 20260831075432 | 20 | 163 | 0.0 | 1.6 | 0.00 | 0.00 | 0.00 | 90 | 1020.7 |
| 20260831074927 | 21 | 163 | 0.0 | 1.6 | 0.00 | 0.00 | 0.00 | 90 | 1020.7 |
| 20260831074426 | 21 | 163 | 0.0 | 1.6 | 0.00 | 0.00 | 0.00 | 89 | 1020.8 |
| 20260831073921 | 21 | 163 | 0.0 | 0.0 | 0.00 | 0.00 | 0.00 | 89 | 1020.9 |
| 20260831073420 | 21 | 163 | 0.0 | 1.6 | 0.00 | 0.00 | 0.00 | 89 | 1021.2 |
| 20260831072915 | 21 | 164 | 0.0 | 0.0 | 0.00 | 0.00 | 0.00 | 88 | 1020.8 |
| 20260831072411 | 21 | 164 | 0.0 | 0.0 | 0.00 | 0.00 | 0.00 | 87 | 1021.1 |
| 20260831071908 | 21 | 163 | 0.0 | 1.6 | 0.00 | 0.00 | 0.00 | 87 | 1020.8 |
| 20260831071407 | 21 | 163 | 1.6 | 1.6 | 0.00 | 0.00 | 0.00 | 86 | 1020.7 |
| 20260831070906 | 21 | 164 | 0.0 | 4.8 | 0.00 | 0.00 | 0.00 | 86 | 1020.8 |
| 20260831070406 | 21 | 164 | 0.0 | 4.8 | 0.00 | 0.00 | 0.00 | 85 | 1020.5 |
| 20260831065905 | 21 | 164 | 1.6 | 1.6 | 0.00 | 0.00 | 0.00 | 85 | 1020.9 |
| 20260831065403 | 21 | 164 | 0.0 | 0.0 | 0.00 | 0.00 | 0.00 | 85 | 1020.9 |
| 20260831064858 | 21 | 164 | 0.0 | 0.0 | 0.00 | 0.00 | 0.00 | 84 | 1020.7 |
| 20260831064353 | 21 | 164 | 0.0 | 0.0 | 0.00 | 0.00 | 0.00 | 84 | 1020.6 |
| 20260831063849 | 21 | 164 | 0.0 | 0.0 | 0.00 | 0.00 | 0.00 | 83 | 1020.7 |
| 20260831063344 | 21 | 164 | 0.0 | 1.6 | 0.00 | 0.00 | 0.00 | 83 | 1020.6 |
| 20260831062844 | 21 | 164 | 0.0 | 1.6 | 0.00 | 0.00 | 0.00 | 83 | 1020.6 |
| 20260831062339 | 21 | 164 | 0.0 | 1.6 | 0.00 | 0.00 | 0.00 | 83 | 1020.7 |
| 20260831061838 | 21 | 164 | 0.0 | 0.0 | 0.00 | 0.00 | 0.00 | 82 | 1020.6 |
| 20260831061337 | 21 | 164 | 1.6 | 1.6 | 0.00 | 0.00 | 0.00 | 82 | 1020.6 |
| 20260831060833 | 21 | 165 | 0.0 | 0.0 | 0.00 | 0.00 | 0.00 | 82 | 1020.7 |
| 20260831060328 | 22 | 165 | 0.0 | 0.0 | 0.00 | 0.00 | 0.00 | 82 | 1020.9 |
| 20260831055827 | 22 | 165 | 0.0 | 0.0 | 0.00 | 0.00 | 0.00 | 82 | 1020.8 |
| 20260831055322 | 22 | 164 | 0.0 | 1.6 | 0.00 | 0.00 | 0.00 | 81 | 1020.9 |
| 20260831054817 | 21 | 272 | 0.0 | 1.6 | 0.00 | 0.00 | 0.00 | 83 | 1020.8 |
| 20260831054312 | 21 | 272 | 0.0 | 1.6 | 0.00 | 0.00 | 0.00 | 83 | 1020.8 |
| 20260831053811 | 21 | 272 | 0.0 | 1.6 | 0.00 | 0.00 | 0.00 | 85 | 1020.6 |
| 20260831053310 | 21 | 273 | 0.0 | 1.6 | 0.00 | 0.00 | 0.00 | 84 | 1020.8 |
| 20260831052805 | 22 | 273 | 1.6 | 4.8 | 0.00 | 0.00 | 0.00 | 84 | 1020.8 |
| 20260831052307 | 22 | 273 | 0.0 | 0.0 | 0.00 | 0.00 | 0.00 | 80 | 1020.6 |
| 20260831051802 | 22 | 273 | 0.0 | 1.6 | 0.00 | 0.00 | 0.00 | 80 | 1020.7 |
| 20260831051301 | 22 | 273 | 1.6 | 1.6 | 0.00 | 0.00 | 0.00 | 81 | 1020.6 |
| 20260831050756 | 22 | 273 | 0.0 | 1.6 | 0.00 | 0.00 | 0.00 | 81 | 1020.7 |
| 20260831050256 | 22 | 273 | 0.0 | 0.0 | 0.00 | 0.00 | 0.00 | 83 | 1020.5 |
| 20260831045750 | 22 | 273 | 0.0 | 0.0 | 0.00 | 0.00 | 0.00 | 82 | 1020.5 |
| 20260831045245 | 22 | 273 | 0.0 | 0.0 | 0.00 | 0.00 | 0.00 | 81 | 1020.6 |
| 20260831044739 | 22 | 273 | 0.0 | 0.0 | 0.00 | 0.00 | 0.00 | 81 | 1020.6 |
| 20260831044234 | 22 | 273 | 0.0 | 1.6 | 0.00 | 0.00 | 0.00 | 81 | 1020.8 |
| 20260831043730 | 22 | 273 | 1.6 | 1.6 | 0.00 | 0.00 | 0.00 | 81 | 1020.8 |
| 20260831043225 | 22 | 274 | 1.6 | 4.8 | 0.00 | 0.00 | 0.00 | 82 | 1020.8 |
| 20260831042724 | 22 | 274 | 0.0 | 0.0 | 0.00 | 0.00 | 0.00 | 82 | 1021.0 |
| 20260831042219 | 22 | 274 | 0.0 | 0.0 | 0.00 | 0.00 | 0.00 | 81 | 1021.0 |
| 20260831041714 | 22 | 274 | 0.0 | 1.6 | 0.00 | 0.00 | 0.00 | 82 | 1020.9 |
| 20260831041209 | 22 | 274 | 0.0 | 0.0 | 0.00 | 0.00 | 0.00 | 81 | 1020.9 |
| 20260831040709 | 22 | 275 | 1.6 | 4.8 | 0.00 | 0.00 | 0.00 | 81 | 1020.9 |
| 20260831040208 | 22 | 274 | 1.6 | 4.8 | 0.00 | 0.00 | 0.00 | 82 | 1020.9 |
| 20260831035706 | 22 | 275 | 0.0 | 1.6 | 0.00 | 0.00 | 0.00 | 83 | 1021.0 |
| 20260831035201 | 22 | 275 | 0.0 | 0.0 | 0.00 | 0.00 | 0.00 | 82 | 1021.2 |
| 20260831034701 | 22 | 275 | 0.0 | 0.0 | 0.00 | 0.00 | 0.00 | 80 | 1021.0 |
| 20260831034156 | 23 | 275 | 1.6 | 4.8 | 0.00 | 0.00 | 0.00 | 78 | 1021.1 |
| 20260831033652 | 23 | 274 | 3.2 | 4.8 | 0.00 | 0.00 | 0.00 | 78 | 1021.1 |
| 20260831033151 | 22 | 275 | 3.2 | 4.8 | 0.00 | 0.00 | 0.00 | 79 | 1021.1 |
| 20260831032651 | 22 | 275 | 1.6 | 4.8 | 0.00 | 0.00 | 0.00 | 80 | 1021.1 |
| 20260831032147 | 22 | 275 | 1.6 | 1.6 | 0.00 | 0.00 | 0.00 | 80 | 1021.1 |
| 20260831031642 | 22 | 275 | 1.6 | 1.6 | 0.00 | 0.00 | 0.00 | 80 | 1021.2 |
| 20260831031142 | 22 | 275 | 1.6 | 1.6 | 0.00 | 0.00 | 0.00 | 80 | 1021.1 |
| 20260831030640 | 22 | 275 | 3.2 | 4.8 | 0.00 | 0.00 | 0.00 | 81 | 1021.0 |
| 20260831030139 | 22 | 274 | 1.6 | 1.6 | 0.00 | 0.00 | 0.00 | 82 | 1021.0 |
| 20260831025638 | 22 | 275 | 3.2 | 4.8 | 0.00 | 0.00 | 0.00 | 80 | 1021.1 |
| 20260831025133 | 22 | 275 | 1.6 | 1.6 | 0.00 | 0.00 | 0.00 | 79 | 1021.3 |
| 20260831024629 | 23 | 274 | 1.6 | 1.6 | 0.00 | 0.00 | 0.00 | 79 | 1021.3 |
| 20260831024128 | 23 | 274 | 0.0 | 0.0 | 0.00 | 0.00 | 0.00 | 79 | 1021.2 |
| 20260831023626 | 23 | 274 | 0.0 | 1.6 | 0.00 | 0.00 | 0.00 | 78 | 1021.1 |
| 20260831023125 | 23 | 239 | 1.6 | 1.6 | 0.00 | 0.00 | 0.00 | 77 | 1021.3 |
| 20260831022620 | 23 | 293 | 1.6 | 1.6 | 0.00 | 0.00 | 0.00 | 78 | 1021.2 |
| 20260831022115 | 23 | 293 | 1.6 | 4.8 | 0.00 | 0.00 | 0.00 | 77 | 1021.3 |
| 20260831021614 | 23 | 293 | 1.6 | 1.6 | 0.00 | 0.00 | 0.00 | 77 | 1021.1 |
| 20260831021110 | 23 | 293 | 1.6 | 1.6 | 0.00 | 0.00 | 0.00 | 77 | 1021.4 |
| 20260831020606 | 23 | 293 | 1.6 | 4.8 | 0.00 | 0.00 | 0.00 | 77 | 1021.3 |
| 20260831015556 | 23 | 293 | 1.6 | 1.6 | 0.00 | 0.00 | 0.00 | 77 | 1021.1 |
| 20260831015050 | 23 | 293 | 1.6 | 1.6 | 0.00 | 0.00 | 0.00 | 79 | 1021.1 |
| 20260831014545 | 23 | 293 | 0.0 | 1.6 | 0.00 | 0.00 | 0.00 | 80 | 1021.1 |
| 20260831014041 | 23 | 293 | 0.0 | 1.6 | 0.00 | 0.00 | 0.00 | 80 | 1021.3 |
| 20260831013537 | 23 | 293 | 1.6 | 1.6 | 0.00 | 0.00 | 0.00 | 79 | 1021.1 |
| 20260831013037 | 23 | 293 | 0.0 | 0.0 | 0.00 | 0.00 | 0.00 | 76 | 1021.1 |
| 20260831012532 | 23 | 292 | 1.6 | 1.6 | 0.00 | 0.00 | 0.00 | 77 | 1021.0 |
| 20260831012032 | 23 | 293 | 0.0 | 4.8 | 0.00 | 0.00 | 0.00 | 75 | 1021.0 |
| 20260831011526 | 23 | 293 | 0.0 | 1.6 | 0.00 | 0.00 | 0.00 | 78 | 1021.0 |
| 20260831011022 | 23 | 293 | 0.0 | 0.0 | 0.00 | 0.00 | 0.00 | 79 | 1020.9 |
| 20260831010516 | 23 | 293 | 0.0 | 1.6 | 0.00 | 0.00 | 0.00 | 79 | 1020.9 |
| 20260831010013 | 23 | 293 | 1.6 | 1.6 | 0.00 | 0.00 | 0.00 | 80 | 1020.9 |
| 20260831005508 | 23 | 293 | 0.0 | 0.0 | 0.00 | 0.00 | 0.00 | 80 | 1020.9 |
| 20260831005007 | 23 | 293 | 0.0 | 0.0 | 0.00 | 0.00 | 0.00 | 81 | 1020.8 |
| 20260831004503 | 23 | 293 | 0.0 | 0.0 | 0.00 | 0.00 | 0.00 | 81 | 1020.8 |
| 20260831003959 | 23 | 293 | 0.0 | 1.6 | 0.00 | 0.00 | 0.00 | 81 | 1020.5 |
| 20260831003455 | 23 | 293 | 0.0 | 0.0 | 0.00 | 0.00 | 0.00 | 82 | 1020.6 |
| 20260831002954 | 23 | 293 | 0.0 | 0.0 | 0.00 | 0.00 | 0.00 | 84 | 1020.2 |
| 20260831002453 | 23 | 293 | 0.0 | 0.0 | 0.00 | 0.00 | 0.00 | 85 | 1020.2 |
| 20260831001949 | 23 | 293 | 0.0 | 0.0 | 0.00 | 0.00 | 0.00 | 85 | 1020.0 |
| 20260831001444 | 23 | 293 | 0.0 | 0.0 | 0.00 | 0.00 | 0.00 | 86 | 1020.0 |
| 20260831000941 | 23 | 293 | 0.0 | 0.0 | 0.00 | 0.00 | 0.00 | 87 | 1020.1 |
| 20260831000437 | 23 | 293 | 0.0 | 1.6 | 0.00 | 0.00 | 0.00 | 87 | 1020.2 |
| 20260830235934 | 23 | 293 | 1.6 | 1.6 | 0.00 | 0.00 | 0.00 | 88 | 1020.0 |
| 20260830235430 | 23 | 293 | 0.0 | 0.0 | 0.00 | 0.00 | 0.00 | 89 | 1020.2 |
| 20260830234925 | 23 | 293 | 0.0 | 0.0 | 0.00 | 0.00 | 0.00 | 86 | 1020.1 |
| 20260830234420 | 23 | 293 | 0.0 | 0.0 | 0.00 | 0.00 | 0.00 | 86 | 1020.1 |